sat.trackr.live / text

‹ back to catalog

E3T-1 (E3TESTER-1)

NORAD 66662 · 2025-274N

PAYLOAD ACTIVE UNKNOWN

§ Identity

Operator
Country
SKOR
Launch date
2025-11-26
Launch site
NSC
Launch vehicle
Mass (kg)
RCS (m²)

External: N2YO · Heavens-Above · Gunter

§ Orbital elements

Epoch: 2026-05-25T01:26:26.962656Z

Period
96.38 min
Inclination
97.7487°
Eccentricity
0.0016538
Mean motion
14.94077998 rev/d
Perigee alt
573.7 km
Apogee alt
596.8 km
Semi-major
6,963.4 km
B*
1.3831e-4
RAAN
74.8812°
Arg perigee
95.2583°
Mean anomaly
265.0525°
Rev number
2,678

§ Raw data

E3T-1 (E3TESTER-1)1 66662U 25274N   26145.06003429  .00001424  00000+0  13831-3 0  99972 66662  97.7487  74.8812 0016538  95.2583 265.0525 14.94077998 26781

JSON: /api/v1/satellites/66662 · /tle

For live sub-satellite position, see the globe view (requires WebGL).

§ Visibility from observer

Set your observer location to see the next 7 days of passes ≥ 10°. The values pass through the URL so the page stays shareable.

No JS? Fill the form by hand. The geolocation button needs JavaScript.